FW6610 Weather Reports


time (UTC)temp
C
wind
direction
speed
KPH
gust
KPH
rain 1hr
cm
rain 24hr
cm
rain mn
cm
humidity
%
barometer
mb
20260507223528 13 342 4.8 19.3 0.00 0.18 0.00 36 1008.3
20260507223040 13 345 8.0 17.7 0.00 0.18 0.00 37 1008.3
20260507222530 14 297 8.0 20.9 0.00 0.18 0.00 37 1008.3
20260507222030 14 283 6.4 20.9 0.00 0.18 0.00 37 1008.2
20260507221538 14 325 4.8 19.3 0.00 0.18 0.00 36 1008.1
20260507221029 14 354 6.4 19.3 0.00 0.18 0.00 38 1008.1
20260507220529 14 18 8.0 19.3 0.00 0.18 0.00 37 1008.3
20260507220044 14 322 9.7 24.1 0.00 0.18 0.00 37 1008.3
20260507215530 14 302 11.3 24.1 0.00 0.33 0.00 37 1008.1
20260507215031 14 301 8.0 22.5 0.00 0.33 0.00 40 1008.3
20260507214542 14 341 6.4 29.0 0.00 0.33 0.00 40 1008.1
20260507214029 14 328 8.0 29.0 0.00 0.33 0.00 37 1008.2
20260507213530 15 294 12.9 29.0 0.00 0.33 0.00 38 1008.1
20260507213054 15 290 6.4 19.3 0.00 0.33 0.00 39 1008.1
20260507212530 15 264 9.7 24.1 0.00 0.33 0.00 36 1008.0
20260507212030 15 308 8.0 27.4 0.00 0.33 0.00 39 1007.9
20260507211544 14 16 11.3 27.4 0.00 0.33 0.00 39 1008.0
20260507211030 15 315 8.0 38.6 0.00 0.33 0.00 39 1008.0
20260507210530 15 323 6.4 38.6 0.00 0.33 0.00 39 1008.0
20260507210040 14 311 8.0 29.0 0.00 0.33 0.00 37 1007.8
20260507205530 15 261 9.7 24.1 0.00 0.41 0.00 39 1007.7
20260507205033 14 335 11.3 24.1 0.00 0.41 0.00 37 1007.8
20260507204548 15 343 11.3 20.9 0.00 0.41 0.00 40 1007.8
20260507204030 15 279 6.4 20.9 0.00 0.41 0.00 39 1007.9
20260507203530 14 352 8.0 20.9 0.00 0.41 0.00 38 1007.9
20260507203044 14 356 8.0 22.5 0.00 0.41 0.00 42 1008.0
20260507202529 14 325 8.0 29.0 0.00 0.41 0.00 40 1008.1
20260507202029 14 317 6.4 29.0 0.00 0.41 0.00 41 1007.9
20260507201544 14 303 12.9 29.0 0.00 0.41 0.00 38 1007.9
20260507201030 15 311 8.0 29.0 0.00 0.41 0.00 37 1007.9
20260507200530 14 302 12.9 29.0 0.00 0.41 0.00 40 1008.1
20260507200042 14 319 6.4 22.5 0.00 0.41 0.00 41 1008.1
20260507195530 14 318 8.0 22.5 0.00 0.48 0.00 39 1008.1
20260507195030 14 340 12.9 22.5 0.00 0.48 0.00 39 1008.1
20260507194539 15 335 9.7 35.4 0.00 0.48 0.00 40 1008.1
20260507194029 15 173 9.7 35.4 0.00 0.48 0.00 43 1008.0
20260507193532 15 154 11.3 35.4 0.00 0.48 0.00 39 1008.0
20260507193038 15 8 8.0 20.9 0.00 0.48 0.00 41 1008.0
20260507192529 15 295 8.0 24.1 0.00 0.48 0.00 42 1008.2
20260507192030 15 309 9.7 24.1 0.00 0.48 0.00 39 1008.2
20260507191545 15 244 9.7 20.9 0.00 0.48 0.00 41 1008.1
20260507191029 15 15 8.0 20.9 0.00 0.48 0.00 42 1008.2
20260507190530 14 342 11.3 20.9 0.00 0.48 0.00 43 1008.4
20260507190045 13 293 6.4 19.3 0.00 0.48 0.00 45 1008.4
20260507185530 13 315 3.2 11.3 0.00 0.58 0.00 45 1008.4
20260507185030 13 293 4.8 19.3 0.00 0.58 0.00 45 1008.5
20260507184541 13 295 4.8 19.3 0.00 0.58 0.00 43 1008.5
20260507184032 13 305 9.7 19.3 0.00 0.58 0.00 41 1008.5
20260507183534 14 349 8.0 17.7 0.00 0.58 0.00 41 1008.5
20260507183045 15 285 4.8 24.1 0.00 0.58 0.00 43 1008.7
20260507182529 15 263 6.4 24.1 0.00 0.58 0.00 41 1008.5
20260507182030 15 6 8.0 19.3 0.00 0.58 0.00 42 1008.6
20260507181542 14 324 8.0 19.3 0.00 0.58 0.00 43 1008.6
20260507181030 15 309 4.8 12.9 0.00 0.58 0.00 44 1008.6
20260507180530 15 348 4.8 17.7 0.00 0.58 0.00 40 1008.7
20260507180053 15 341 6.4 17.7 0.00 0.58 0.00 42 1008.7
20260507175530 14 327 8.0 17.7 0.00 0.74 0.00 41 1008.7
20260507175030 14 343 8.0 17.7 0.00 0.74 0.00 42 1008.8
20260507174546 14 8 9.7 17.7 0.00 0.74 0.00 40 1008.8
20260507174029 15 323 8.0 24.1 0.00 0.74 0.00 46 1008.8
20260507173529 15 309 8.0 24.1 0.00 0.74 0.00 42 1008.7
20260507173051 14 250 4.8 20.9 0.00 0.74 0.00 40 1008.7
20260507172529 15 328 9.7 20.9 0.00 0.74 0.00 43 1008.6
20260507172030 15 72 6.4 17.7 0.00 0.74 0.00 40 1008.9
20260507171544 15 290 6.4 17.7 0.00 0.74 0.00 42 1008.7
20260507171029 15 12 6.4 19.3 0.00 0.74 0.00 42 1008.8
20260507170530 15 354 6.4 19.3 0.00 0.74 0.00 39 1008.9
20260507170043 14 352 6.4 19.3 0.00 0.74 0.00 40 1008.8
20260507165530 14 328 6.4 27.4 0.00 0.74 0.00 41 1009.0
20260507165035 14 8 11.3 27.4 0.00 0.74 0.00 41 1009.0
20260507164554 14 351 9.7 22.5 0.00 0.74 0.00 42 1009.1
20260507164033 14 32 4.8 20.9 0.00 0.74 0.00 43 1009.1
20260507163529 14 34 6.4 16.1 0.00 0.74 0.00 44 1009.2
20260507163048 14 323 8.0 20.9 0.00 0.74 0.00 44 1009.4
20260507162530 14 335 6.4 20.9 0.00 0.74 0.00 43 1009.6
20260507162030 13 290 9.7 20.9 0.00 0.74 0.00 41 1009.6
20260507161545 13 217 6.4 29.0 0.00 0.74 0.00 44 1009.7
20260507161029 13 283 9.7 29.0 0.00 0.74 0.00 41 1009.7
20260507160533 13 359 11.3 29.0 0.00 0.74 0.00 42 1010.0
20260507160059 13 325 4.8 11.3 0.00 0.74 0.00 53 1009.9
20260507155529 13 69 4.8 16.1 0.00 0.74 0.00 45 1010.0
20260507155029 13 345 6.4 16.1 0.00 0.74 0.00 47 1009.9
20260507154544 13 20 6.4 17.7 0.00 0.74 0.00 43 1010.0
20260507154030 13 241 6.4 19.3 0.00 0.74 0.00 43 1009.9
20260507153529 13 324 4.8 19.3 0.00 0.74 0.00 49 1010.1
20260507153049 13 10 9.7 19.3 0.00 0.74 0.00 47 1010.1
20260507152529 13 346 6.4 22.5 0.00 0.74 0.00 44 1009.9
20260507152030 13 311 8.0 22.5 0.00 0.74 0.00 45 1010.1
20260507151539 12 332 8.0 22.5 0.00 0.74 0.00 44 1010.1
20260507151030 12 293 8.0 22.5 0.00 0.74 0.00 47 1010.2
20260507150533 12 8 9.7 22.5 0.00 0.74 0.00 44 1010.2
20260507150047 12 350 8.0 25.7 0.00 0.74 0.00 45 1010.3
20260507145532 12 301 11.3 25.7 0.00 0.74 0.00 43 1010.3
20260507145029 12 359 9.7 20.9 0.00 0.74 0.00 46 1010.4
20260507144550 12 326 6.4 22.5 0.00 0.74 0.00 48 1010.5
20260507144030 12 309 12.9 22.5 0.00 0.74 0.00 42 1010.5
20260507143532 12 331 8.0 22.5 0.00 0.74 0.00 48 1010.6
20260507143042 12 329 8.0 22.5 0.00 0.74 0.00 43 1010.6
20260507142530 12 284 11.3 27.4 0.00 0.74 0.00 45 1010.6
20260507142029 12 354 8.0 27.4 0.00 0.74 0.00 48 1010.5
20260507141542 12 304 12.9 25.7 0.00 0.74 0.00 43 1010.4
20260507141033 12 23 6.4 16.1 0.00 0.74 0.00 44 1010.4
20260507140530 12 314 4.8 24.1 0.00 0.74 0.00 46 1010.4
20260507140104 12 271 6.4 24.1 0.00 0.74 0.00 47 1010.4
20260507135530 12 356 3.2 14.5 0.00 0.74 0.00 54 1010.2
20260507135030 12 159 4.8 16.1 0.00 0.74 0.00 46 1010.2
20260507134541 11 249 9.7 19.3 0.00 0.74 0.00 46 1010.2
20260507134030 12 342 4.8 19.3 0.00 0.74 0.00 48 1010.2
20260507133530 11 296 4.8 16.1 0.00 0.74 0.00 51 1010.2
20260507133048 11 347 8.0 16.1 0.00 0.74 0.00 50 1010.1
20260507132529 11 358 3.2 22.5 0.00 0.74 0.00 49 1010.2
20260507132029 11 274 9.7 22.5 0.00 0.74 0.00 49 1010.2
20260507131552 11 336 4.8 16.1 0.00 0.74 0.00 49 1010.2
20260507131031 11 313 8.0 16.1 0.00 0.74 0.00 51 1010.1
20260507130534 11 297 3.2 24.1 0.00 0.74 0.00 55 1009.9
20260507130051 11 316 6.4 24.1 0.00 0.74 0.00 56 1010.2
20260507125534 11 350 4.8 14.5 0.00 0.74 0.00 55 1010.1
20260507125030 11 340 4.8 16.1 0.00 0.74 0.00 56 1010.0
20260507124552 10 297 4.8 16.1 0.00 0.74 0.00 56 1010.0
20260507124029 10 236 9.7 19.3 0.00 0.74 0.00 55 1010.1
20260507123531 10 295 8.0 22.5 0.00 0.74 0.00 59 1010.1
20260507123053 10 89 6.4 22.5 0.00 0.74 0.00 59 1010.2
20260507122533 10 340 6.4 20.9 0.00 0.74 0.00 58 1010.2
20260507122030 10 252 6.4 20.9 0.00 0.74 0.00 59 1010.2
20260507121542 10 284 8.0 20.9 0.00 0.74 0.00 59 1010.3
20260507121029 10 284 6.4 17.7 0.00 0.74 0.00 64 1010.2
20260507120530 10 281 4.8 17.7 0.00 0.74 0.00 64 1010.1
20260507120048 10 293 4.8 17.7 0.00 0.74 0.00 68 1010.1
20260507115530 10 334 4.8 19.3 0.00 0.74 0.00 66 1010.2
20260507115030 9 347 9.7 19.3 0.00 0.74 0.00 67 1010.0
20260507114547 9 36 6.4 19.3 0.00 0.74 0.00 71 1009.9
20260507114031 9 347 6.4 19.3 0.00 0.74 0.00 73 1009.9
20260507113530 9 307 8.0 14.5 0.00 0.74 0.00 75 1009.8
20260507113044 9 274 6.4 14.5 0.00 0.74 0.00 77 1009.9
20260507112531 8 299 4.8 12.9 0.00 0.74 0.00 78 1009.7
20260507112030 8 344 4.8 12.9 0.00 0.74 0.00 80 1009.7
20260507111545 8 333 1.6 16.1 0.00 0.74 0.00 80 1009.6
20260507111029 8 266 3.2 16.1 0.00 0.74 0.00 81 1009.4
20260507110529 8 315 4.8 16.1 0.00 0.74 0.00 81 1009.4
20260507110043 8 329 3.2 14.5 0.00 0.74 0.00 81 1009.5
20260507105531 8 340 4.8 16.1 0.00 0.74 0.00 80 1009.4
20260507105030 8 347 6.4 16.1 0.00 0.74 0.00 79 1009.3
20260507104541 8 326 4.8 12.9 0.00 0.74 0.00 80 1009.3
20260507104029 8 17 1.6 12.9 0.00 0.74 0.00 81 1009.3
20260507103529 8 333 3.2 12.9 0.00 0.74 0.00 81 1009.3
20260507103035 8 226 3.2 9.7 0.00 0.74 0.00 81 1008.9
20260507102530 8 335 1.6 9.7 0.00 0.74 0.00 82 1008.9
20260507102029 8 0 0.0 8.0 0.00 0.74 0.00 82 1008.9
20260507101547 8 335 1.6 6.4 0.00 0.74 0.00 82 1008.8
20260507101029 8 0 1.6 9.7 0.00 0.74 0.00 81 1008.9
20260507100529 8 296 1.6 9.7 0.00 0.74 0.00 81 1008.8
20260507100045 8 274 3.2 8.0 0.00 0.74 0.00 81 1008.7
20260507095530 8 266 3.2 8.0 0.00 0.74 0.00 82 1008.7
20260507095029 8 283 3.2 8.0 0.00 0.74 0.00 82 1008.6
20260507094541 8 255 0.0 6.4 0.00 0.74 0.00 83 1008.7
20260507094029 8 282 1.6 6.4 0.00 0.74 0.00 83 1008.7
20260507093529 8 342 1.6 8.0 0.00 0.74 0.00 84 1008.7
20260507093042 8 295 1.6 9.7 0.00 0.74 0.00 84 1008.7
20260507092532 8 334 3.2 9.7 0.00 0.74 0.00 84 1008.7
20260507092029 8 0 0.0 6.4 0.00 0.74 0.00 86 1008.8
20260507091539 8 14 0.0 4.8 0.00 0.74 0.00 86 1008.7
20260507091029 8 0 0.0 4.8 0.00 0.74 0.00 86 1008.8
20260507090528 8 335 0.0 6.4 0.00 0.74 0.00 86 1008.9
20260507090041 8 0 0.0 8.0 0.00 0.74 0.00 87 1008.9
20260507085529 8 291 0.0 8.0 0.00 0.74 0.00 87 1009.1
20260507085030 9 0 0.0 8.0 0.00 0.74 0.00 87 1009.0
20260507084537 9 0 1.6 8.0 0.00 0.74 0.00 88 1008.8
20260507084036 9 288 1.6 6.4 0.00 0.74 0.00 88 1009.0
20260507083530 8 0 1.6 6.4 0.00 0.74 0.00 89 1009.1
20260507083049 8 0 0.0 3.2 0.00 0.74 0.00 90 1008.8
20260507082529 8 0 0.0 3.2 0.00 0.74 0.00 91 1009.1
20260507082029 8 0 0.0 3.2 0.00 0.74 0.00 92 1009.1
20260507081541 8 0 0.0 3.2 0.00 0.74 0.00 92 1009.2
20260507081030 8 270 0.0 3.2 0.00 0.74 0.00 93 1009.4
20260507080529 8 0 0.0 1.6 0.00 0.74 0.00 93 1009.1
20260507080053 9 0 0.0 1.6 0.00 0.74 0.00 93 1009.1
20260507075529 9 0 0.0 1.6 0.00 0.74 0.00 93 1009.1
20260507075029 9 0 0.0 0.0 0.00 0.74 0.00 93 1008.9
20260507074545 9 0 0.0 0.0 0.00 0.74 0.00 92 1009.0
20260507074029 9 0 0.0 0.0 0.00 0.74 0.00 92 1008.9
20260507073530 9 0 0.0 0.0 0.00 0.74 0.00 92 1009.1
20260507073037 9 0 0.0 0.0 0.00 0.74 0.00 91 1009.2
20260507072529 9 0 0.0 1.6 0.00 0.74 0.00 91 1008.8
20260507072028 9 0 0.0 1.6 0.00 0.74 0.00 90 1009.0
20260507071552 9 7 0.0 1.6 0.00 0.74 0.00 89 1008.6
20260507071032 10 0 0.0 3.2 0.00 0.74 0.00 88 1008.5
20260507070530 10 0 0.0 4.8 0.00 0.74 0.00 88 1008.7
20260507070039 10 0 0.0 9.7 0.00 0.74 0.00 87 1008.4
20260507065529 10 338 1.6 9.7 0.00 0.74 0.00 87 1008.7
20260507065029 10 264 1.6 9.7 0.00 0.74 0.00 87 1008.9
20260507064551 10 288 0.0 8.0 0.00 0.74 0.00 87 1008.8
20260507064030 10 307 1.6 8.0 0.00 0.74 0.00 87 1008.5
20260507063529 10 283 3.2 8.0 0.00 0.74 0.00 87 1008.6
20260507063046 10 315 1.6 6.4 0.00 0.74 0.00 87 1008.5
20260507062529 10 269 1.6 6.4 0.00 0.74 0.00 87 1008.4
20260507062029 10 317 1.6 6.4 0.00 0.74 0.00 87 1008.1
20260507061541 10 306 1.6 6.4 0.00 0.74 0.00 86 1008.0
20260507061029 10 323 1.6 6.4 0.00 0.74 0.00 86 1008.3
20260507060529 10 314 1.6 4.8 0.00 0.74 0.00 86 1008.3
20260507060043 10 0 1.6 8.0 0.00 0.74 0.00 86 1008.3
20260507055529 10 0 1.6 8.0 0.00 0.74 0.00 85 1008.1
20260507055031 10 298 1.6 8.0 0.00 0.74 0.00 85 1008.6
20260507054549 10 0 1.6 8.0 0.00 0.74 0.00 85 1008.8
20260507054029 10 314 3.2 8.0 0.00 0.74 0.00 85 1008.7
20260507053529 10 259 0.0 8.0 0.00 0.74 0.00 85 1008.8
20260507053045 10 0 1.6 8.0 0.00 0.74 0.00 86 1008.6
20260507052529 10 267 3.2 8.0 0.00 0.74 0.00 85 1008.8
20260507052029 10 298 3.2 6.4 0.00 0.74 0.00 87 1009.0
20260507051536 10 340 0.0 3.2 0.00 0.74 0.00 86 1008.8
20260507051028 10 0 0.0 4.8 0.00 0.74 0.00 86 1009.0
20260507050529 10 262 1.6 4.8 0.00 0.74 0.00 87 1009.0
20260507050044 10 314 0.0 4.8 0.00 0.74 0.00 87 1009.0
20260507045530 10 345 1.6 6.4 0.00 0.74 0.00 87 1009.0
20260507045030 10 359 1.6 6.4 0.00 0.74 0.00 86 1009.2
20260507044542 10 324 3.2 9.7 0.00 0.74 0.00 87 1009.2
20260507044029 10 343 3.2 9.7 0.00 0.74 0.00 87 1009.1
20260507043529 10 329 3.2 8.0 0.00 0.74 0.00 88 1009.2
20260507043040 10 0 0.0 1.6 0.00 0.74 0.00 92 1009.0
20260507042530 10 0 0.0 1.6 0.00 0.74 0.00 92 1009.0
20260507042029 10 0 0.0 0.0 0.00 0.74 0.00 91 1009.1
20260507041539 10 0 0.0 0.0 0.00 0.74 0.00 91 1008.8
20260507041030 10 0 0.0 1.6 0.00 0.74 0.00 90 1008.9
20260507040530 11 0 0.0 1.6 0.00 0.74 0.00 89 1008.9
20260507040057 11 0 0.0 1.6 0.00 0.74 0.00 90 1008.6
20260507035529 11 315 0.0 3.2 0.00 0.74 0.74 90 1008.8
20260507035030 11 0 0.0 3.2 0.00 0.74 0.74 90 1008.7
20260507034549 11 307 0.0 3.2 0.00 0.74 0.74 90 1008.6
20260507034031 11 0 0.0 1.6 0.00 0.74 0.74 90 1008.7
20260507033532 11 338 0.0 3.2 0.00 0.74 0.74 90 1008.8
20260507033045 11 0 0.0 4.8 0.00 0.74 0.74 89 1008.9
20260507032529 11 0 0.0 4.8 0.00 0.74 0.74 88 1009.0
20260507032032 11 0 1.6 6.4 0.00 0.74 0.74 88 1009.0
20260507031541 11 0 1.6 6.4 0.00 0.74 0.74 87 1008.9
20260507031033 11 306 1.6 6.4 0.00 0.74 0.74 87 1008.9
20260507030529 11 0 0.0 4.8 0.00 0.74 0.74 88 1008.9
20260507030038 11 317 1.6 6.4 0.00 0.74 0.74 87 1009.0
20260507025529 11 0 1.6 6.4 0.00 0.74 0.74 87 1008.7
20260507025030 11 290 1.6 6.4 0.00 0.74 0.74 88 1008.8
20260507024544 11 302 0.0 3.2 0.00 0.74 0.74 88 1008.4
20260507024031 11 325 0.0 3.2 0.00 0.74 0.74 89 1008.5
20260507023530 12 0 0.0 8.0 0.00 0.74 0.74 90 1008.6
20260507023041 12 3 3.2 9.7 0.03 0.74 0.74 88 1008.5
20260507022530 12 288 3.2 9.7 0.03 0.74 0.74 89 1008.6
20260507022030 12 344 0.0 4.8 0.03 0.74 0.74 92 1008.5
20260507021544 12 0 0.0 1.6 0.03 0.74 0.74 92 1008.3
20260507021029 12 0 0.0 3.2 0.03 0.74 0.74 91 1008.2
20260507020530 12 0 0.0 11.3 0.03 0.74 0.74 90 1008.2
20260507020037 12 195 1.6 11.3 0.03 0.74 0.74 89 1008.0
20260507015531 12 320 4.8 16.1 0.03 0.74 0.74 89 1007.8
20260507015030 12 0 4.8 16.1 0.03 0.74 0.74 90 1007.7
20260507014559 12 23 3.2 12.9 0.03 0.74 0.74 91 1007.9
20260507014030 13 0 4.8 12.9 0.03 0.74 0.74 92 1007.9
20260507013525 13 317 0.0 3.2 0.03 0.74 0.74 94 1007.8
20260507013041 13 0 0.0 1.6 0.00 0.71 0.71 95 1007.9
20260507012526 13 0 0.0 1.6 0.03 0.71 0.71 95 1007.5
20260507012026 13 0 0.0 1.6 0.13 0.71 0.71 95 1007.4
20260507011554 13 0 0.0 3.2 0.13 0.71 0.71 95 1007.1
20260507011029 13 0 0.0 3.2 0.13 0.71 0.71 95 1007.1
20260507010529 13 140 1.6 3.2 0.13 0.71 0.71 94 1007.1
20260507010043 14 0 0.0 1.6 0.13 0.71 0.71 94 1007.1
20260507005530 14 252 0.0 3.2 0.13 0.71 0.71 94 1007.0
20260507005030 14 279 0.0 6.4 0.13 0.71 0.71 94 1007.0
20260507004542 14 11 0.0 6.4 0.13 0.71 0.71 95 1006.5
20260507004029 14 300 1.6 9.7 0.13 0.71 0.71 96 1006.8
20260507003530 14 276 0.0 9.7 0.13 0.71 0.71 96 1006.8
20260507003038 15 332 3.2 9.7 0.13 0.71 0.71 97 1006.7
20260507002529 15 346 1.6 4.8 0.08 0.66 0.66 97 1006.8
20260507002026 15 198 1.6 8.0 0.00 0.58 0.58 97 1006.4
20260507001555 15 146 1.6 8.0 0.00 0.58 0.58 97 1006.1
20260507001029 15 126 1.6 8.0 0.00 0.58 0.58 97 1006.1
20260507000529 15 158 1.6 8.0 0.00 0.58 0.58 97 1006.1
20260507000046 15 141 1.6 8.0 0.00 0.58 0.58 97 1006.0
20260506235530 15 150 1.6 8.0 0.00 0.58 0.58 97 1006.1
20260506235031 15 160 1.6 6.4 0.00 0.58 0.58 97 1006.0
20260506234546 15 145 1.6 6.4 0.00 0.58 0.58 97 1005.9
20260506234029 15 147 1.6 6.4 0.00 0.58 0.58 97 1005.8
20260506233530 15 136 0.0 6.4 0.00 0.58 0.58 97 1005.8
20260506233043 15 126 1.6 6.4 0.00 0.58 0.58 97 1005.8
20260506232529 15 142 1.6 6.4 0.00 0.58 0.58 97 1005.8
20260506232029 15 179 3.2 6.4 0.00 0.58 0.58 97 1005.8
20260506231542 15 145 1.6 6.4 0.00 0.58 0.58 97 1005.8
20260506231029 15 155 1.6 6.4 0.00 0.58 0.58 97 1005.7
20260506230530 15 145 3.2 6.4 0.00 0.58 0.58 96 1005.6
20260506230039 15 148 3.2 6.4 0.00 0.58 0.58 96 1005.6
20260506225531 15 181 1.6 4.8 0.03 0.58 0.58 96 1005.6
20260506225029 15 150 1.6 4.8 0.05 0.58 0.58 96 1005.7
20260506224538 15 154 1.6 6.4 0.05 0.58 0.58 96 1005.7
20260506224029 15 0 1.6 6.4 0.10 0.58 0.58 96 1005.7